Location: Port Stanley
(42.6641°N, 81.2156°W)
Time: 14:18:12
(UTC-04:00)

ISS - Visible Passes

Search period start: 19 August 2019 00:00
Search period end: 29 August 2019 00:00
Orbit: 410 x 420 km, 51.6° (Epoch: 20 August)

Date Brightness Start Highest point End Pass type
(mag) Time Alt. Az. Time Alt. Az. Time Alt. Az.
26 Aug -1.4 05:48:36 10° S 05:51:02 19° SE 05:53:27 10° E visible
27 Aug -1.0 05:01:29 10° SE 05:02:25 11° SE 05:03:21 10° ESE visible
28 Aug -3.1 05:47:06 14° SW 05:49:49 50° SE 05:53:05 10° ENE visible
